Location: Aranbee
(34.0885°N, 118.2342°W)
Time: 08:36:15
(UTC+00:00)

Courier 1B Rocket - Pass Details

Date: 26 November 2020
Orbit: 920 x 1202 km, 28.2° (Epoch: 27 January)

Event Time Altitude Azimuth Distance (km) Brightness Sun altitude
Rises 17:39:43 0° 268° (W) 4,015 7.9 27.8°
Reaches altitude 10° 17:42:42 10° 263° (W) 3,018 7.4 28.1°
Maximum altitude 17:49:45 48° 191° (SSW) 1,387 6.9 28.8°
Drops below altitude 10° 17:56:20 10° 119° (ESE) 2,815 8.4 29.5°
Sets 17:59:02 0° 114° (ESE) 3,724 8.8 29.7°
